[[{"header":{"parameterUnit":"m.s-1","parameterCategory":1,"la1":30.2991,"la2":30.254,"lo1":-89.0895,"lo2":-89.0444,"dy":0.0017,"dx":0.0017,"nx":28,"ny":28,"refTime":"2025-09-09T09:00:00:Z","depth":0,"parameterNumber":2,"parameterNumberName":"U-component_of_WINDS"},"data":[0,0,0,0,0,0,0,0,0,0,0,0,0,0,0,0,0,0,0,0,0,0,0,0,0,0,0,0,0,0,0,0,0,0,0,0,0,0,0,0,0,0,0,0,0,0,0,0,0,0,0,0,0,0,0,0,0,0,-1.3077,-1.3078,0,-1.3235,-1.3237,-1.3239,-1.3257,-1.3256,-1.3254,-1.3253,-1.3421,-1.3426,-1.3432,0,0,0,0,0,0,0,0,0,0,0,0,0,-1.2795,-1.28,-1.3076,-1.3078,-1.308,-1.3235,-1.3237,-1.3239,-1.3258,-1.3256,-1.3254,-1.3252,-1.3419,-1.3426,-1.3433,0,0,0,0,0,0,0,0,0,0,0,0,0,-1.2932,-1.2802,-1.3076,-1.3108,-1.3113,-1.3234,-1.3237,-1.324,-1.3258,-1.3256,-1.3253,-1.3251,-1.3416,-1.3425,-1.3434,-1.3536,0,0,-1.3461,-1.3465,0,0,0,0,0,0,0,0,-1.2924,-1.2942,-1.3102,-1.3106,-1.3111,-1.3224,-1.3199,-1.3339,-1.3259,-1.3203,-1.3253,-1.325,-1.3358,-1.3371,-1.3406,-1.3544,-1.3551,-1.3462,-1.3467,-1.3471,-1.3474,0,0,0,0,0,0,0,-1.2915,-1.2936,-1.3139,-1.3104,-1.311,-1.3116,-1.3133,-1.3226,-1.3292,-1.3208,-1.3209,-1.3228,-1.336,-1.3398,-1.341,-1.3554,-1.3462,-1.3469,-1.3475,-1.3478,-1.3784,-1.3786,0,0,0,0,0,0,-1.2899,-1.2928,-1.3134,-1.3144,-1.301,-1.3123,-1.3142,-1.319,-1.3291,-1.3304,-1.323,-1.3228,-1.3383,-1.34,-1.3416,-1.3543,-1.3471,-1.3479,-1.3484,-1.3781,-1.3784,-1.3787,0,0,0,0,0,0,-1.2893,-1.2917,-1.3128,-1.3036,-1.3064,-1.3131,-1.3185,-1.3195,-1.3232,-1.3307,-1.332,-1.3256,-1.3382,-1.3404,-1.3506,-1.3549,-1.3483,-1.3491,-1.3778,-1.3782,-1.3786,-1.3797,0,0,0,0,0,0,-1.2884,-1.2915,-1.2953,-1.3037,-1.3068,-1.3213,-1.3187,-1.3199,-1.3247,-1.3246,-1.3335,-1.3347,-1.3382,-1.3492,-1.3515,-1.356,-1.3498,-1.3774,-1.3779,-1.3784,-1.3793,-1.3801,-1.3807,0,0,0,0,0,-1.2874,-1.2951,-1.2955,-1.298,-1.3118,-1.3216,-1.3234,-1.3271,-1.325,-1.329,-1.3338,-1.3345,-1.354,-1.3503,-1.3528,-1.3577,-1.3772,-1.3778,-1.3784,-1.3789,-1.3799,-1.3807,0,0,0,0,0,0,-1.2873,-1.2963,-1.2968,-1.3074,-1.3137,-1.3219,-1.327,-1.328,-1.3351,-1.3348,-1.3392,-1.3412,-1.3512,-1.3555,-1.3511,-1.3681,-1.3654,-1.3666,-1.365,-1.3659,-1.3667,-1.3655,-1.3506,0,0,0,0,0,-1.2884,-1.2954,-1.303,-1.3116,-1.3147,-1.3203,-1.3247,-1.327,-1.3338,-1.3365,-1.3421,-1.3488,-1.3564,-1.3614,-1.3689,-1.3798,-1.3819,-1.3844,-1.3852,-1.3857,-1.3867,-1.3929,-1.3942,-1.3808,-1.3808,-1.3807,0,0,-1.291,-1.2967,-1.301,-1.3117,-1.3169,-1.3242,-1.3226,-1.3304,-1.336,-1.3378,-1.3477,-1.352,-1.3598,-1.3704,-1.3754,-1.3743,-1.3908,-1.3865,-1.3869,-1.3876,-1.3937,-1.3949,-1.3961,-1.3812,-1.3811,-1.381,0,0,-1.2993,-1.3044,-1.3121,-1.3172,-1.325,-1.3286,-1.3304,-1.3385,-1.3414,-1.3513,-1.3528,-1.3596,-1.3727,-1.3782,-1.3827,-1.393,-1.3939,-1.3953,-1.3992,-1.4052,-1.4062,-1.4072,-1.411,-1.4123,-1.3963,-1.3963,-1.3963,0,-1.3016,-1.3126,-1.316,-1.3238,-1.3285,-1.3302,-1.3382,-1.3431,-1.3529,-1.3562,-1.3548,-1.3712,-1.3766,-1.3885,-1.391,-1.3946,-1.3969,-1.3944,-1.4057,-1.4068,-1.4077,-1.4114,-1.4128,-1.3964,-1.3964,-1.3964,-1.3964,0,-1.315,-1.3225,-1.3279,-1.3371,-1.3425,-1.3503,-1.3551,-1.3601,-1.3618,-1.3657,-1.3759,-1.3823,-1.3911,-1.3941,-1.396,-1.4064,-1.4054,-1.4048,-1.4022,-1.4091,-1.4126,-1.414,-1.3966,-1.3965,-1.3965,-1.3965,0,0,-1.3239,-1.3348,-1.3367,-1.3409,-1.3495,-1.3555,-1.3634,-1.3718,-1.3761,-1.3828,-1.3897,-1.4006,-1.4001,-1.4052,-1.4077,-1.4129,-1.4208,-1.4117,-1.4119,-1.4132,-1.4327,-1.4332,-1.4347,-1.4213,-1.4216,-1.4218,-1.4321,0,-1.3333,-1.3473,-1.3506,-1.3627,-1.3698,-1.3714,-1.3784,-1.3845,-1.3882,-1.395,-1.3992,-1.4069,-1.4056,-1.4087,-1.4139,-1.4187,-1.4248,-1.418,-1.428,-1.4283,-1.426,-1.4366,-1.4371,-1.4465,-1.4335,-1.4337,-1.4339,0,-1.3463,-1.353,-1.3657,-1.3733,-1.3764,-1.3826,-1.3905,-1.3968,-1.4038,-1.4062,-1.4118,-1.4138,-1.4223,-1.4191,-1.431,-1.4263,-1.4306,-1.4335,-1.434,-1.4352,-1.4315,-1.4381,-1.4495,-1.451,-1.436,-1.4359,-1.4357,0,-1.3516,-1.3639,-1.3731,-1.3766,-1.3857,-1.3899,-1.394,-1.4007,-1.4055,-1.4125,-1.4157,-1.4237,-1.4281,-1.4343,-1.4384,-1.4357,-1.4499,-1.4471,-1.4523,-1.4522,-1.4554,-1.4551,-1.4677,-1.4579,-1.4579,-1.4579,-1.4578,0,-1.3619,-1.3696,-1.3755,-1.3812,-1.39,-1.3937,-1.4023,-1.4064,-1.4123,-1.4189,-1.4209,-1.4271,-1.4321,-1.439,-1.4423,-1.4517,-1.4536,-1.4559,-1.4567,-1.4558,-1.4555,-1.4588,-1.4583,-1.4582,-1.4582,-1.4581,-1.458,0,-1.3694,-1.3736,-1.3838,-1.3914,-1.3935,-1.3996,-1.4063,-1.412,-1.4157,-1.424,-1.4262,-1.4322,-1.4404,-1.4451,-1.4556,-1.4578,-1.4682,-1.4686,-1.4658,-1.4662,-1.4711,-1.4706,-1.4863,-1.4886,-1.4771,-1.4772,-1.4773,0,-1.3757,-1.3817,-1.3899,-1.3943,-1.3983,-1.4055,-1.4104,-1.4143,-1.4193,-1.4277,-1.4324,-1.4406,-1.4475,-1.4606,-1.4661,-1.4741,-1.4748,-1.4797,-1.476,-1.4749,-1.475,-1.4746,-1.4753,-1.4804,-1.4805,-1.4806,-1.4807,0,-1.3865,-1.3883,-1.3951,-1.4027,-1.4084,-1.4146,-1.4208,-1.4243,-1.4293,-1.4349,-1.4432,-1.4485,-1.459,-1.4673,-1.4757,-1.4801,-1.4813,-1.4817,-1.4834,-1.4826,-1.4807,-1.4819,-1.4676,-1.4814,-1.4814,-1.4813,-1.4813,-1.4812,-1.3938,-1.3991,-1.4057,-1.4132,-1.4182,-1.4239,-1.4295,-1.4339,-1.4408,-1.4496,-1.4515,-1.4603,-1.4672,-1.4786,-1.4831,-1.4902,-1.4893,-1.4917,-1.4923,-1.4929,-1.4931,-1.4794,-1.4917,-1.4917,-1.4917,-1.4917,-1.4917,0,-1.4048,-1.409,-1.4159,-1.4243,-1.4303,-1.4306,-1.4374,-1.4424,-1.4501,-1.4563,-1.4629,-1.4725,-1.4805,-1.4864,-1.4947,-1.4992,-1.5,-1.5012,-1.501,-1.502,-1.4933,-1.4911,-1.5005,-1.5005,-1.5005,-1.5005,-1.5005,-1.5005,-1.4112,-1.4203,-1.4228,-1.4344,-1.4387,-1.4471,-1.451,-1.4563,-1.4613,-1.4718,-1.4784,-1.4821,-1.4883,-1.4969,-1.5043,-1.5059,-1.5089,-1.5101,-1.5118,-1.5036,-1.5026,-1.5017,-1.4997,-1.5107,-1.5107,-1.5199,-1.52,-1.52]},{"header":{"parameterUnit":"m.s-1","parameterCategory":1,"la1":30.2991,"la2":30.254,"lo1":-89.0895,"lo2":-89.0444,"dy":0.0017,"dx":0.0017,"nx":28,"ny":28,"refTime":"2025-09-09T09:00:00:Z","depth":0,"parameterNumber":3,"parameterNumberName":"V-component_of_WINDS"},"data":[0,0,0,0,0,0,0,0,0,0,0,0,0,0,0,0,0,0,0,0,0,0,0,0,0,0,0,0,0,0,0,0,0,0,0,0,0,0,0,0,0,0,0,0,0,0,0,0,0,0,0,0,0,0,0,0,0,0,-2.2833,-2.2834,0,-2.2842,-2.2843,-2.2843,-2.2801,-2.28,-2.2798,-2.2797,-2.2804,-2.2806,-2.2807,0,0,0,0,0,0,0,0,0,0,0,0,0,-2.2778,-2.2779,-2.2833,-2.2834,-2.2834,-2.2842,-2.2843,-2.2843,-2.2801,-2.2799,-2.2798,-2.2797,-2.2804,-2.2806,-2.2807,0,0,0,0,0,0,0,0,0,0,0,0,0,-2.2796,-2.278,-2.2833,-2.2814,-2.2812,-2.2842,-2.2843,-2.2843,-2.2801,-2.2799,-2.2798,-2.2796,-2.2804,-2.2805,-2.2807,-2.2856,0,0,-2.2814,-2.2814,0,0,0,0,0,0,0,0,-2.2795,-2.2798,-2.2817,-2.2815,-2.2814,-2.2819,-2.2826,-2.2847,-2.2802,-2.2805,-2.2797,-2.2795,-2.2811,-2.2812,-2.2817,-2.2857,-2.2857,-2.2814,-2.2815,-2.2816,-2.2816,0,0,0,0,0,0,0,-2.2794,-2.2797,-2.2837,-2.2817,-2.2815,-2.2804,-2.2805,-2.283,-2.2818,-2.2805,-2.2802,-2.2804,-2.2809,-2.2816,-2.2817,-2.2857,-2.2814,-2.2815,-2.2817,-2.2817,-2.2936,-2.2938,0,0,0,0,0,0,-2.2795,-2.2797,-2.2837,-2.2837,-2.28,-2.2807,-2.2807,-2.2819,-2.2818,-2.2816,-2.2805,-2.2802,-2.2813,-2.2815,-2.2817,-2.2874,-2.2816,-2.2818,-2.2819,-2.2934,-2.2936,-2.2938,0,0,0,0,0,0,-2.2794,-2.2799,-2.2836,-2.2816,-2.282,-2.2809,-2.2823,-2.282,-2.2826,-2.2818,-2.2815,-2.2814,-2.2812,-2.2815,-2.2847,-2.2874,-2.2819,-2.282,-2.2932,-2.2935,-2.2937,-2.2988,0,0,0,0,0,0,-2.2793,-2.2799,-2.2818,-2.2817,-2.2821,-2.2866,-2.2825,-2.2821,-2.283,-2.2825,-2.2825,-2.2824,-2.2811,-2.2844,-2.2849,-2.2875,-2.2822,-2.2929,-2.2933,-2.2936,-2.2984,-2.2992,-2.2999,0,0,0,0,0,-2.2791,-2.2832,-2.2819,-2.2824,-2.2845,-2.2868,-2.287,-2.2855,-2.2832,-2.2851,-2.2845,-2.2824,-2.287,-2.2848,-2.2853,-2.288,-2.2927,-2.2932,-2.2936,-2.298,-2.299,-2.2999,0,0,0,0,0,0,-2.2836,-2.2831,-2.2817,-2.2859,-2.2864,-2.2861,-2.2884,-2.2866,-2.2878,-2.2873,-2.2853,-2.2853,-2.2889,-2.2888,-2.2863,-2.2927,-2.2895,-2.29,-2.2926,-2.2936,-2.2944,-2.2943,-2.2824,0,0,0,0,0,-2.2851,-2.287,-2.2865,-2.2902,-2.2906,-2.2894,-2.2904,-2.2892,-2.2896,-2.2898,-2.2895,-2.2899,-2.2915,-2.2925,-2.2939,-2.2983,-2.2982,-2.3005,-2.3013,-2.3019,-2.3024,-2.3047,-2.3056,-2.2953,-2.2953,-2.2953,0,0,-2.2881,-2.2881,-2.2895,-2.2911,-2.2914,-2.2934,-2.2897,-2.292,-2.2934,-2.2901,-2.2931,-2.2929,-2.2933,-2.2971,-2.2988,-2.2972,-2.3052,-2.3025,-2.303,-2.3031,-2.3052,-2.3062,-2.3071,-2.2956,-2.2955,-2.2955,0,0,-2.2947,-2.2949,-2.298,-2.2984,-2.2988,-2.2981,-2.2988,-2.2988,-2.2985,-2.3015,-2.2991,-2.3008,-2.3035,-2.3039,-2.3044,-2.3111,-2.3091,-2.3116,-2.3157,-2.3179,-2.3187,-2.3194,-2.3218,-2.3227,-2.3121,-2.3122,-2.3122,0,-2.2984,-2.3014,-2.2998,-2.3023,-2.303,-2.3002,-2.3033,-2.3037,-2.3046,-2.3052,-2.3033,-2.3067,-2.3067,-2.3106,-2.3122,-2.3128,-2.3135,-2.3116,-2.3188,-2.3195,-2.3201,-2.3223,-2.3232,-2.3124,-2.3124,-2.3124,-2.3124,0,-2.3059,-2.308,-2.3105,-2.3115,-2.3125,-2.3153,-2.314,-2.3153,-2.314,-2.3134,-2.3165,-2.3164,-2.3178,-2.3186,-2.3173,-2.3223,-2.3212,-2.3191,-2.3158,-2.3214,-2.3235,-2.3243,-2.3129,-2.3128,-2.3127,-2.3126,0,0,-2.3152,-2.3153,-2.3163,-2.3167,-2.317,-2.3186,-2.3212,-2.3225,-2.3236,-2.3243,-2.3264,-2.3288,-2.3269,-2.3275,-2.3262,-2.3282,-2.3335,-2.3259,-2.3258,-2.3272,-2.3389,-2.3404,-2.3414,-2.3322,-2.3324,-2.3325,-2.3388,0,-2.3216,-2.3262,-2.3248,-2.3293,-2.3313,-2.3286,-2.3309,-2.3313,-2.3308,-2.3323,-2.3318,-2.3335,-2.3308,-2.3312,-2.333,-2.3325,-2.3358,-2.332,-2.3341,-2.3342,-2.334,-2.3425,-2.3441,-2.3501,-2.3396,-2.3397,-2.3398,0,-2.3297,-2.3308,-2.3355,-2.3355,-2.3363,-2.3384,-2.3395,-2.341,-2.3414,-2.3409,-2.3416,-2.3399,-2.3424,-2.3392,-2.3426,-2.34,-2.3408,-2.3406,-2.3408,-2.3409,-2.3373,-2.3427,-2.352,-2.3528,-2.3411,-2.341,-2.3409,0,-2.3359,-2.3386,-2.3418,-2.3422,-2.3423,-2.3438,-2.3439,-2.3441,-2.345,-2.346,-2.3465,-2.3478,-2.3484,-2.3494,-2.3481,-2.3459,-2.3516,-2.3483,-2.3512,-2.3513,-2.3525,-2.3525,-2.3619,-2.3531,-2.3531,-2.3531,-2.3531,0,-2.3432,-2.3462,-2.3446,-2.3465,-2.3498,-2.3482,-2.3514,-2.3512,-2.3515,-2.3533,-2.351,-2.3528,-2.351,-2.3525,-2.3515,-2.3545,-2.3548,-2.3544,-2.3541,-2.3546,-2.3546,-2.355,-2.3545,-2.3534,-2.3533,-2.3533,-2.3532,0,-2.3507,-2.3498,-2.353,-2.3529,-2.3529,-2.3553,-2.3551,-2.3569,-2.3563,-2.3586,-2.3591,-2.3581,-2.3598,-2.3586,-2.3603,-2.3596,-2.3635,-2.3626,-2.3633,-2.3631,-2.3661,-2.3658,-2.3761,-2.3773,-2.3678,-2.3679,-2.368,0,-2.3553,-2.3576,-2.3577,-2.3588,-2.359,-2.3608,-2.3617,-2.3602,-2.3613,-2.3619,-2.3636,-2.3651,-2.3663,-2.3691,-2.3685,-2.3698,-2.3689,-2.3724,-2.3691,-2.3695,-2.3689,-2.3687,-2.3689,-2.3731,-2.3732,-2.3733,-2.3734,0,-2.3637,-2.3631,-2.3645,-2.3659,-2.367,-2.368,-2.3687,-2.3697,-2.3682,-2.3695,-2.3712,-2.3721,-2.3739,-2.3754,-2.3765,-2.3765,-2.3747,-2.3744,-2.3752,-2.3757,-2.376,-2.3758,-2.3651,-2.3742,-2.3741,-2.374,-2.374,-2.374,-2.3698,-2.3717,-2.3721,-2.3737,-2.3742,-2.3749,-2.3766,-2.3762,-2.3777,-2.379,-2.378,-2.3801,-2.3804,-2.3817,-2.3819,-2.3835,-2.382,-2.3831,-2.3834,-2.3837,-2.3841,-2.3758,-2.3837,-2.3837,-2.3836,-2.3836,-2.3836,0,-2.378,-2.3781,-2.3797,-2.3808,-2.3821,-2.3804,-2.3811,-2.3823,-2.3842,-2.3847,-2.3859,-2.3879,-2.3894,-2.3889,-2.3902,-2.3916,-2.3908,-2.392,-2.3918,-2.3918,-2.3853,-2.3845,-2.3926,-2.3926,-2.3926,-2.3926,-2.3926,-2.3926,-2.3824,-2.3854,-2.3849,-2.3881,-2.3882,-2.3903,-2.3909,-2.3915,-2.3919,-2.3943,-2.3955,-2.3952,-2.3953,-2.3966,-2.3979,-2.3977,-2.3983,-2.3998,-2.3993,-2.3932,-2.3923,-2.3914,-2.3907,-2.3999,-2.3999,-2.4057,-2.4057,-2.4058]}]]